Location: Winnipeg
(49.8830°N, 97.1670°W)
Time: 23:15:33
(UTC-06:00)

X-37B - Pass Details

Date: 14 December 2022
Orbit: 277 x 277 km, 45.0° (Epoch: 01 November)

Event Time Altitude Azimuth Distance (km) Brightness Sun altitude
Rises 19:05:07 0° 263° (W) 1,916 5.5 -24.1°
Reaches altitude 10° 19:07:24 10° 241° (WSW) 1,101 3.8 -24.5°
Enters shadow 19:07:36 11° 237° (WSW) 1,046 3.6 -24.5°
